Location: Pine Mountain Observatory
(43.7910°N, 120.9377°W)
Time: 20:50:06
(UTC-07:00)

S-56A Canister/Altair - All Passes

Search period start: 25 May 2019 00:00
Search period end: 04 June 2019 00:00
Orbit: 633 x 2499 km, 38.9° (Epoch: 24 May)

Date Brightness Start Highest point End Pass type
(mag) Time Alt. Az. Time Alt. Az. Time Alt. Az.
25 May - 00:04:33 10° SSE 00:06:22 12° SE 00:08:22 10° ESE visible
25 May - 02:03:18 10° SW 02:08:45 42° SSE 02:16:39 10° E visible
25 May - 04:05:40 10° WSW 04:12:36 64° S 04:23:18 10° E visible
25 May - 06:08:57 10° W 06:17:21 52° SSW 06:29:37 10° SE daylight
25 May - 08:13:35 10° W 08:22:14 28° SW 08:33:09 10° SSE daylight
26 May - 01:31:10 10° SW 01:36:10 37° SSE 01:43:11 10° E visible
26 May - 03:33:19 10° WSW 03:39:46 63° S 03:49:41 10° E visible
26 May - 05:36:26 10° W 05:44:19 54° SSW 05:56:02 10° SE daylight
26 May - 07:40:43 10° W 07:49:07 30° SSW 08:00:03 10° SSE daylight
27 May - 00:59:04 10° SSW 01:03:39 31° SSE 01:09:48 10° E visible
27 May - 03:00:59 10° WSW 03:07:00 60° S 03:16:08 10° E visible
27 May - 05:03:58 10° W 05:11:21 55° SSW 05:22:27 10° ESE daylight
27 May - 07:07:58 10° W 07:16:02 32° SSW 07:26:51 10° SSE daylight
27 May - 09:17:53 10° WSW 09:20:29 11° SW 09:23:12 10° SSW daylight
28 May - 00:27:02 10° SSW 00:31:10 26° SSE 00:36:28 10° E visible
28 May - 02:28:42 10° WSW 02:34:18 57° S 02:42:40 10° E visible
28 May - 04:31:33 10° W 04:38:26 56° S 04:48:54 10° ESE visible
28 May - 06:35:17 10° W 06:43:00 34° SSW 06:53:36 10° SSE daylight
28 May - 08:43:23 10° WSW 08:47:28 12° SW 08:51:56 10° SSW daylight
28 May - 23:55:04 10° SSW 23:58:44 22° SE 00:03:10 10° E visible
29 May - 01:56:25 10° WSW 02:01:39 53° SSE 02:09:16 10° E visible
29 May - 03:59:10 10° W 04:05:36 56° S 04:15:22 10° ESE visible
29 May - 06:02:41 10° W 06:10:01 35° SSW 06:20:18 10° SSE daylight
29 May - 08:09:40 10° WSW 08:14:27 14° SW 08:19:55 10° SSW daylight
29 May - 23:23:12 10° S 23:26:19 18° SE 23:29:52 10° ESE visible
30 May - 01:24:10 10° WSW 01:29:04 49° SSE 01:35:58 10° E visible
30 May - 03:26:49 10° W 03:32:49 57° S 03:41:53 10° ESE visible
30 May - 05:30:10 10° W 05:37:05 36° SSW 05:46:58 10° SE daylight
30 May - 07:36:18 10° WSW 07:41:28 15° SW 07:47:33 10° S daylight
30 May - 22:51:29 10° S 22:53:54 14° SE 22:56:30 10° ESE night (unlit)
31 May - 00:51:55 10° SW 00:56:32 44° SSE 01:02:45 10° E visible
31 May - 02:54:29 10° W 03:00:06 56° S 03:08:27 10° ESE visible
31 May - 04:57:42 10° W 05:04:13 38° SSW 05:13:38 10° SE daylight
31 May - 07:03:12 10° WSW 07:08:32 17° SW 07:14:57 10° S daylight
31 May - 22:20:10 10° SSE 22:21:28 11° SE 22:22:49 10° SE night (unlit)
01 Jun - 00:19:41 10° SW 00:24:02 39° SSE 00:29:37 10° E visible
01 Jun - 02:22:10 10° W 02:27:27 56° S 02:35:07 10° ESE visible
01 Jun - 04:25:15 10° W 04:31:23 39° SSW 04:40:18 10° SE visible
01 Jun - 06:30:16 10° WSW 06:35:37 18° SSW 06:42:13 10° S daylight
01 Jun - 23:47:27 10° SW 23:51:34 34° SSE 23:56:35 10° E visible
02 Jun - 01:49:51 10° WSW 01:54:49 55° S 02:01:51 10° ESE visible
02 Jun - 03:52:52 10° W 03:58:38 40° SSW 04:06:59 10° SE visible
02 Jun - 05:57:28 10° WSW 06:02:44 19° SSW 06:09:23 10° S daylight
02 Jun - 23:15:14 10° SW 23:19:07 30° SSE 23:23:37 10° E visible
03 Jun - 01:17:32 10° WSW 01:22:15 53° S 01:28:41 10° ESE visible
03 Jun - 03:20:29 10° W 03:25:55 41° SSW 03:33:44 10° SE visible
03 Jun - 05:24:46 10° WSW 05:29:55 20° SSW 05:36:29 10° SSE daylight
03 Jun - 22:43:00 10° SSW 22:46:41 26° SSE 22:50:43 10° E visible
